Погода в Вае

Россия / Пермский край     60°35′24″N   58°23′17″E
темп.,
°C
ветер,
м/с
пор.,
м/с
влажн.,
%
обл.,
%
осадки,
мм/ч
давл.,
гПа
погр.,
м
6 марта, сб
сб623:00−11з1297100 0.9 99828
02:00−14зюз2397100 0.4 100083
05:00−17юз2297100 0.7 100179
08:00−18юз239899 0.3 1003122
11:00−16зюз129199 0.5 1003288
14:00−14з2487100 0.1 1004706
17:00−14з3591100 0.3 1005737
20:00−17з2498100 0.2 100793
7 марта, вс
вс723:00−18юз1198100 0.4 100820
02:00−20ююз1299100 0.1 100824
05:00−20ююз2299100 0.3 100934
08:00−20ююз2298100 0.1 100856
11:00−16юз2489100 0.3 1008576
14:00−15юз2484100 0.1 1008854
17:00−15зюз2387100 0.3 1007614
20:00−18ююз1197100 0.1 100720
8 марта, пн
пн823:00−20ю1298100 0.1 100720
02:00−22ююв129795 0.0 100720
05:00−23юв129681 0.1 100720
08:00−24вюв12945 0.0 100620
11:00−16в128424 0.0 1004288
14:00−12вюв237994 0.0 1002696
17:00−13в238597 0.0 1002524
20:00−17в2297100 0.1 100147
9 марта, вт
вт923:00−18в2297100 0.2 100161
02:00−19в2297100 0.1 100149
05:00−18в2298100 0.4 100165
08:00−19в1298100 0.3 100242
11:00−15всв1289100 0.4 1003322
14:00−12с1186100 0.1 1004497
17:00−13ссз2391100 0.3 1006484
20:00−18сз2299100 0.1 100861
10 марта, ср
ср1023:00−23сз12100100 0.3 101029
02:00−25ссз11100100 0.1 101119
05:00−27ссз11100100 0.1 101220
08:00−29сз12100100 0.0 101224
11:00−24ссз2390100 0.0 1012280
14:00−19сз248148 0.0 1012544
17:00−20сз238954 0.0 1011578
20:00−26з11100100 0.0 101220